Date String (YYYY-MM-DD hh:mm:ss) UTC,Instrument flags,absolute air pressure of the measurement (hPa),sample flow rate (lpm),inlet stack bypass flow (lpm),air temperature of the measurement (°C),ambient temperature measured by the external sensor (°C),aerosol sample conditioner tube jacket temperature (°C),OPC LED temperature (°C),internal box temperature (°C),relative humidity of the measurement (%),span deviation,mass concentration of particles derived from Lorenz-Mie calculation of OPC scattering (μg/m³),mass concentration of particles derived from Lorenz-Mie calculation of OPC scattering (μg/m³),mass concentration of particles derived from Lorenz-Mie calculation of OPC scattering (μg/m³)
DateTimeUTC,F1_M11,P_M11,Q1_M11,Q2_M11,T1_M11,T2_M11,T3_M11,T4_M11,T5_M11,U1_M11,ZSPAN_M11,X0_M11,X2_M11,X1_M11
2023-07-20 02:00:00,SystemResetWarning,0836.6,4.99,000.00,028.9,026.0,000.0,037.3,030.3,29.7,0000.0,0012.50,0004.56,0004.09
2023-07-20 02:01:00,SystemResetWarning,0836.7,5.00,000.00,028.9,026.4,000.0,037.3,030.4,29.7,0000.0,0012.36,0004.57,0004.09
2023-07-20 02:02:00,SystemResetWarning,0836.7,5.00,000.00,029.0,026.8,000.0,037.3,030.5,29.6,0000.0,0012.87,0004.58,0004.09
2023-07-20 02:03:00,SystemResetWarning,0836.6,5.00,000.00,029.0,027.1,000.0,037.4,030.6,29.4,0000.0,0012.91,0004.61,0004.10
2023-07-20 02:04:00,SystemResetWarning,0836.6,5.00,000.00,029.0,027.4,000.0,037.4,030.7,29.3,0000.0,0012.12,0004.59,0004.10
2023-07-20 02:05:00,SystemResetWarning,0836.6,5.01,000.00,029.1,027.7,000.0,037.4,030.8,29.2,0000.0,0011.96,0004.57,0004.09
2023-07-20 02:06:00,SystemResetWarning,0836.6,4.99,000.00,029.1,027.8,000.0,037.4,030.9,29.2,0000.0,0010.86,0004.54,0004.08
2023-07-20 02:07:00,SystemResetWarning,0836.6,4.99,000.00,029.1,026.4,000.0,037.3,030.7,29.1,0000.0,0010.88,0004.51,0004.06
2023-07-20 02:08:00,SystemResetWarning,0836.6,5.00,000.00,029.1,024.9,000.0,037.2,030.4,29.4,0000.0,0010.79,0004.49,0004.04
2023-07-20 02:09:00,SystemResetWarning,0836.6,5.00,000.00,029.0,024.6,000.0,037.1,030.3,29.5,0000.0,0010.90,0004.50,0004.03
2023-07-20 02:10:00,SystemResetWarning,0836.6,5.01,000.00,028.9,024.9,000.0,037.2,030.2,29.2,0000.0,0010.10,0004.51,0004.02
2023-07-20 02:11:00,SystemResetWarning,0836.6,5.01,000.00,028.8,025.4,000.0,037.2,030.2,29.0,0000.0,0010.29,0004.48,0004.00
2023-07-20 02:12:00,SystemResetWarning,0836.6,4.99,000.00,028.8,025.9,000.0,037.3,030.3,29.3,0000.0,0010.34,0004.48,0003.98
2023-07-20 02:13:00,SystemResetWarning,0836.6,5.00,000.00,028.8,026.3,000.0,037.3,030.4,29.4,0000.0,0009.79,0004.46,0003.97
2023-07-20 02:14:00,SystemResetWarning,0836.7,5.00,000.00,028.9,026.7,000.0,037.3,030.5,29.4,0000.0,0009.57,0004.39,0003.96
2023-07-20 02:15:00,SystemResetWarning,0836.7,4.99,000.00,028.9,027.0,000.0,037.3,030.5,29.0,0000.0,0009.60,0004.36,0003.94
2023-07-20 02:16:00,SystemResetWarning,0836.8,5.00,000.00,028.9,027.3,000.0,037.3,030.6,29.0,0000.0,0010.22,0004.37,0003.93
2023-07-20 02:17:00,SystemResetWarning,0836.8,5.00,000.00,029.0,027.6,000.0,037.3,030.7,28.9,0000.0,0010.08,0004.33,0003.91
2023-07-20 02:18:00,SystemResetWarning,0836.8,5.00,000.00,029.0,027.8,000.0,037.4,030.8,28.9,0000.0,0009.82,0004.32,0003.91
2023-07-20 02:19:00,SystemResetWarning,0836.8,5.01,000.00,029.1,028.0,000.0,037.4,030.8,28.8,0000.0,0009.15,0004.34,0003.92
2023-07-20 02:20:00,SystemResetWarning,0836.8,4.99,000.00,029.1,027.9,000.0,037.4,030.9,29.0,0000.0,0009.01,0004.32,0003.91
2023-07-20 02:21:00,SystemResetWarning,0836.8,4.99,000.00,029.1,026.4,000.0,037.3,030.7,29.0,0000.0,0008.89,0004.26,0003.90
2023-07-20 02:22:00,SystemResetWarning,0836.9,5.01,000.00,029.1,025.6,000.0,037.2,030.5,29.2,0000.0,0008.48,0004.26,0003.88
2023-07-20 02:23:00,SystemResetWarning,0836.9,5.01,000.00,029.0,025.6,000.0,037.2,030.3,29.3,0000.0,0008.02,0004.21,0003.87
2023-07-20 02:24:00,SystemResetWarning,0836.9,5.00,000.00,028.9,026.0,000.0,037.3,030.4,29.3,0000.0,0007.96,0004.19,0003.85
2023-07-20 02:25:00,SystemResetWarning,0836.9,5.00,000.00,028.9,026.4,000.0,037.3,030.5,29.1,0000.0,0007.91,0004.17,0003.81
2023-07-20 02:26:00,SystemResetWarning,0836.9,5.00,000.00,029.0,026.7,000.0,037.4,030.6,29.1,0000.0,0007.93,0004.18,0003.79
2023-07-20 02:27:00,SystemResetWarning,0836.9,4.99,000.00,029.0,027.1,000.0,037.4,030.6,29.0,0000.0,0007.05,0004.14,0003.76
2023-07-20 02:28:00,SystemResetWarning,0836.9,4.99,000.00,029.0,027.4,000.0,037.4,030.7,29.0,0000.0,0007.02,0004.10,0003.74
2023-07-20 02:29:00,SystemResetWarning,0836.9,5.00,000.00,029.1,027.6,000.0,037.4,030.8,29.0,0000.0,0007.09,0004.08,0003.71
2023-07-20 02:30:00,SystemResetWarning,0836.9,5.00,000.00,029.1,027.8,000.0,037.5,030.9,29.0,0000.0,0007.05,0004.07,0003.69
2023-07-20 02:31:00,SystemResetWarning,0837.0,5.01,000.00,029.2,027.9,000.0,037.5,030.9,28.6,0000.0,0007.24,0004.08,0003.67
2023-07-20 02:32:00,SystemResetWarning,0837.0,4.98,000.00,029.2,026.5,000.0,037.4,030.8,28.8,0000.0,0007.27,0004.08,0003.65
2023-07-20 02:33:00,SystemResetWarning,0837.0,5.01,000.00,029.1,025.0,000.0,037.3,030.5,28.9,0000.0,0007.27,0004.09,0003.65
2023-07-20 02:34:00,SystemResetWarning,0837.0,5.01,000.00,029.0,024.5,000.0,037.2,030.2,29.2,0000.0,0007.47,0004.10,0003.64
2023-07-20 02:35:00,SystemResetWarning,0837.0,5.00,000.00,028.9,024.8,000.0,037.2,030.1,29.7,0000.0,0007.62,0004.08,0003.65
2023-07-20 02:36:00,SystemResetWarning,0836.9,4.99,000.00,028.8,025.3,000.0,037.3,030.1,30.1,0000.0,0007.65,0004.08,0003.65
2023-07-20 02:37:00,SystemResetWarning,0836.9,5.00,000.00,028.8,025.8,000.0,037.3,030.3,30.2,0000.0,0007.72,0004.09,0003.66
2023-07-20 02:38:00,SystemResetWarning,0837.0,5.01,000.00,028.8,026.2,000.0,037.3,030.3,30.2,0000.0,0007.71,0004.11,0003.66
2023-07-20 02:39:00,SystemResetWarning,0837.0,5.00,000.00,028.8,026.6,000.0,037.3,030.4,30.1,0000.0,0007.73,0004.14,0003.66
2023-07-20 02:40:00,SystemResetWarning,0837.1,5.00,000.00,028.9,027.0,000.0,037.3,030.5,30.1,0000.0,0007.71,0004.14,0003.66
2023-07-20 02:41:00,SystemResetWarning,0837.2,5.00,000.00,028.9,027.2,000.0,037.3,030.6,30.1,0000.0,0007.63,0004.11,0003.66
2023-07-20 02:42:00,SystemResetWarning,0837.2,5.00,000.00,029.0,027.5,000.0,037.3,030.7,30.2,0000.0,0007.62,0004.09,0003.66
2023-07-20 02:43:00,SystemResetWarning,0837.1,5.01,000.00,029.0,027.7,000.0,037.4,030.7,30.0,0000.0,0007.68,0004.07,0003.66
2023-07-20 02:44:00,SystemResetWarning,0837.2,5.00,000.00,029.0,027.9,000.0,037.4,030.8,29.9,0000.0,0007.96,0004.07,0003.65
2023-07-20 02:45:00,SystemResetWarning,0837.2,4.99,000.00,029.1,028.0,000.0,037.4,030.9,30.0,0000.0,0007.86,0004.06,0003.65
2023-07-20 02:46:00,SystemResetWarning,0837.2,4.99,000.00,029.1,028.0,000.0,037.4,030.9,30.1,0000.0,0007.80,0004.09,0003.65
2023-07-20 02:47:00,SystemResetWarning,0837.2,4.99,000.00,029.1,026.5,000.0,037.3,030.7,30.4,0000.0,0007.90,0004.11,0003.66
2023-07-20 02:48:00,SystemResetWarning,0837.2,5.00,000.00,029.1,025.5,000.0,037.3,030.5,30.7,0000.0,0007.84,0004.08,0003.66
2023-07-20 02:49:00,SystemResetWarning,0837.2,5.01,000.00,029.0,025.5,000.0,037.3,030.3,30.5,0000.0,0008.17,0004.07,0003.68
2023-07-20 02:50:00,SystemResetWarning,0837.2,5.01,000.00,028.9,025.8,000.0,037.3,030.3,30.6,0000.0,0008.29,0004.10,0003.70
2023-07-20 02:51:00,SystemResetWarning,0837.2,5.00,000.00,028.9,026.2,000.0,037.3,030.4,30.8,0000.0,0008.44,0004.13,0003.72
2023-07-20 02:52:00,SystemResetWarning,0837.3,5.00,000.00,028.9,026.6,000.0,037.4,030.5,31.0,0000.0,0008.66,0004.16,0003.74
2023-07-20 02:53:00,SystemResetWarning,0837.4,5.00,000.00,029.0,027.0,000.0,037.4,030.6,31.1,0000.0,0009.65,0004.19,0003.77
2023-07-20 02:54:00,SystemResetWarning,0837.4,5.00,000.00,029.0,027.3,000.0,037.4,030.7,31.2,0000.0,0009.66,0004.22,0003.81
2023-07-20 02:55:00,SystemResetWarning,0837.5,5.00,000.00,029.0,027.5,000.0,037.4,030.8,30.8,0000.0,0009.39,0004.28,0003.86
2023-07-20 02:56:00,SystemResetWarning,0837.6,5.00,000.00,029.1,027.7,000.0,037.4,030.8,30.7,0000.0,0009.34,0004.31,0003.90
2023-07-20 02:57:00,SystemResetWarning,0837.6,5.02,000.00,029.1,027.9,000.0,037.5,030.9,30.5,0000.0,0009.57,0004.37,0003.96
2023-07-20 02:58:00,SystemResetWarning,0837.6,5.00,000.00,029.2,027.7,000.0,037.5,030.9,29.8,0000.0,0009.69,0004.44,0004.00
2023-07-20 02:59:00,SystemResetWarning,0837.5,4.98,000.00,029.2,026.0,000.0,037.3,030.7,29.8,0000.0,0009.56,0004.52,0004.05
